Weather History for Heber, UT

Change the Weather History Date:

Tuesday, March 4, 2014

  Actual Average (KPVU) Record (KPVU)
Temperature  
Mean Temperature 35 °F -  
Max Temperature 44 °F 44 °F 66 °F (1987)
Min Temperature 26 °F 26 °F 11 °F (1985)
Degree Days  
Heating Degree Days 30    
Moisture  
Dew Point 31 °F    
Average Humidity 80    
Maximum Humidity 93    
Minimum Humidity 65    
Precipitation  
Precipitation 0.00 in - - ()
Sea Level Pressure  
Sea Level Pressure 30.06 in    
Wind  
Wind Speed 8 mph (North)    
Max Wind Speed 23 mph    
Max Gust Speed 30 mph    
Visibility 10 miles    
Events Snow    
Averages and records for this station are not official NWS values.
T = Trace of Precipitation, MM = Missing Value Source: NWS Daily Summary

Daily Weather History Graph

Daily Weather History Graph

Search for Another Location

Airport:

Trip Planner

Search our weather history database for the weather conditions in past years. The results will help you decide how hot, cold, wet, or windy it might be!

Date:

Astronomy

Mar. 04, 2014 Rise Set
Actual Time 6:54 AM MST 6:20 PM MST
Civil Twilight 6:27 AM MST 6:47 PM MST
Nautical Twilight 5:55 AM MST 7:19 PM MST
Astronomical Twilight 5:24 AM MST 7:51 PM MST
Moon 8:42 AM MST (3/4) 10:32 PM MST (3/4)
Length of Visible Light 12h 20m
Length of Day
11h 25m
Waxing Crescent, 15% of the Moon is Illuminated
Mar 4
Waxing Crescent
Mar 8
First Quarter
Mar 16
Full
Mar 23
Last Quarter
Mar 30
New

Hourly Weather History & Observations

Time (MST) Temp. Windchill Dew Point Humidity Pressure Visibility Wind Dir Wind Speed Gust Speed Precip Events Conditions
9:15 AM 35.6 °F 30.7 °F 30.2 °F 81% 29.93 in 10.0 mi East 5.8 mph - N/A   Overcast
9:35 AM 35.6 °F - 32.0 °F 87% 29.93 in 10.0 mi Calm Calm - N/A   Overcast
9:55 AM 37.4 °F 32.8 °F 32.0 °F 81% 29.95 in 10.0 mi West 5.8 mph - N/A   Overcast
10:15 AM 42.8 °F 34.8 °F 32.0 °F 66% 29.95 in 10.0 mi SW 17.3 mph 20.7 mph N/A   Overcast
10:35 AM 41.0 °F 33.1 °F 33.8 °F 76% 29.95 in 10.0 mi WSW 15.0 mph - N/A   Overcast
10:55 AM 42.8 °F 36.2 °F 33.8 °F 70% 29.96 in 10.0 mi SW 12.7 mph - N/A   Overcast
11:15 AM 44.6 °F 38.1 °F 33.8 °F 66% 29.96 in 10.0 mi SW 13.8 mph - N/A   Overcast
11:35 AM 42.8 °F 36.6 °F 33.8 °F 70% 29.96 in 10.0 mi SSW 11.5 mph - N/A   Overcast
11:55 AM 42.8 °F 37.5 °F 33.8 °F 70% 29.97 in 10.0 mi West 9.2 mph - N/A   Overcast
12:15 PM 35.6 °F 26.2 °F 32.0 °F 87% 29.99 in 2.0 mi North 15.0 mph 29.9 mph N/A Snow Light Snow
12:35 PM 35.6 °F 26.6 °F 32.0 °F 87% 30.00 in 10.0 mi North 13.8 mph 19.6 mph N/A   Overcast
12:55 PM 37.4 °F 33.8 °F 33.8 °F 87% 30.01 in 10.0 mi North 4.6 mph - N/A   Overcast
1:15 PM 37.4 °F 28.9 °F 32.0 °F 81% 30.01 in 10.0 mi North 13.8 mph 19.6 mph N/A   Overcast
1:35 PM 39.2 °F 29.8 °F 32.0 °F 75% 30.00 in 10.0 mi North 18.4 mph 23.0 mph N/A   Overcast
1:55 PM 39.2 °F 30.2 °F 32.0 °F 75% 30.01 in 10.0 mi North 17.3 mph 25.3 mph N/A   Overcast
2:15 PM 39.2 °F 34.2 °F 32.0 °F 75% 30.01 in 10.0 mi NNE 6.9 mph - N/A   Overcast
2:35 PM 41.0 °F 36.4 °F 30.2 °F 65% 30.01 in 10.0 mi North 6.9 mph - N/A   Overcast
2:55 PM 41.0 °F 33.9 °F 30.2 °F 65% 30.02 in 10.0 mi North 12.7 mph 20.7 mph N/A   Overcast
3:15 PM 41.0 °F 31.1 °F 30.2 °F 65% 30.02 in 10.0 mi NNE 23.0 mph 28.8 mph N/A   Overcast
3:35 PM 41.0 °F 32.5 °F 32.0 °F 70% 30.03 in 10.0 mi NNE 17.3 mph 23.0 mph N/A   Overcast
3:55 PM 41.0 °F 34.3 °F 32.0 °F 70% 30.03 in 10.0 mi NE 11.5 mph - N/A   Overcast
4:15 PM 42.8 °F 37.0 °F 32.0 °F 66% 30.03 in 10.0 mi NE 10.4 mph - N/A   Scattered Clouds
4:35 PM 41.0 °F 38.0 °F 32.0 °F 70% 30.05 in 10.0 mi NE 4.6 mph - N/A   Clear
4:55 PM 42.8 °F 38.0 °F 32.0 °F 66% 30.06 in 10.0 mi West 8.1 mph - N/A   Scattered Clouds
5:15 PM 41.0 °F - 30.2 °F 65% 30.06 in 10.0 mi Calm Calm - N/A   Overcast
5:35 PM 41.0 °F 37.1 °F 32.0 °F 70% 30.07 in 10.0 mi WSW 5.8 mph - N/A   Mostly Cloudy
5:55 PM 39.2 °F 33.6 °F 32.0 °F 75% 30.08 in 10.0 mi SW 8.1 mph - N/A   Mostly Cloudy
6:15 PM 37.4 °F 33.8 °F 32.0 °F 81% 30.09 in 10.0 mi WSW 4.6 mph - N/A   Scattered Clouds
6:35 PM 35.6 °F - 32.0 °F 87% 30.10 in 10.0 mi Calm Calm - N/A   Scattered Clouds
6:55 PM 35.6 °F - 30.2 °F 81% 30.10 in 10.0 mi Calm Calm - N/A   Scattered Clouds
7:15 PM 33.8 °F - 32.0 °F 93% 30.12 in 10.0 mi Calm Calm - N/A   Clear
7:35 PM 32.0 °F 27.5 °F 28.4 °F 87% 30.12 in 10.0 mi ESE 4.6 mph - N/A   Scattered Clouds
7:55 PM 30.2 °F 25.4 °F 28.4 °F 93% 30.12 in 10.0 mi ESE 4.6 mph - N/A   Scattered Clouds
8:15 PM 32.0 °F - 28.4 °F 87% 30.13 in 10.0 mi Calm Calm - N/A   Clear
8:35 PM 32.0 °F 27.5 °F 30.2 °F 93% 30.13 in 10.0 mi East 4.6 mph - N/A   Clear
8:55 PM 32.0 °F 28.7 °F 28.4 °F 87% 30.14 in 10.0 mi ESE 3.5 mph - N/A   Clear
9:15 PM 30.2 °F - 26.6 °F 86% 30.15 in 10.0 mi Calm Calm - N/A   Clear
9:35 PM 30.2 °F - 26.6 °F 86% 30.15 in 10.0 mi Calm Calm - N/A   Clear
9:55 PM 28.4 °F - 26.6 °F 93% 30.15 in 10.0 mi Calm Calm - N/A   Clear
10:15 PM 30.2 °F - 28.4 °F 93% 30.16 in 10.0 mi Calm Calm - N/A   Clear
10:35 PM 28.4 °F - 26.6 °F 93% 30.17 in 10.0 mi Calm Calm - N/A   Clear
10:55 PM 28.4 °F 24.6 °F 26.6 °F 93% 30.17 in 10.0 mi ESE 3.5 mph - N/A   Clear
11:15 PM 26.6 °F - 24.8 °F 93% 30.17 in 10.0 mi Calm Calm - N/A   Clear
11:35 PM 30.2 °F - 28.4 °F 93% 30.18 in 10.0 mi Calm Calm - N/A   Clear
11:55 PM 28.4 °F - 26.6 °F 93% 30.18 in 10.0 mi Calm Calm - N/A   Clear